GW7006 Weather Reports


time (UTC)temp
C
wind
direction
speed
KPH
gust
KPH
rain 1hr
cm
rain 24hr
cm
rain mn
cm
humidity
%
barometer
mb
20260510044530 19 257 1.6 9.7 0.00 0.00 0.00 63 1027.2
20260510043017 19 27 1.6 6.4 0.00 0.00 0.00 65 1027.4
20260510041514 19 133 1.6 6.4 0.00 0.00 0.00 64 1027.5
20260510040012 19 147 3.2 11.3 0.00 0.00 0.00 64 1027.5
20260510034507 19 219 3.2 8.0 0.00 0.00 0.00 63 1027.6
20260510033133 19 319 1.6 6.4 0.00 0.00 0.00 66 1027.8
20260510031542 18 179 3.2 11.3 0.00 0.00 0.00 66 1027.8
20260510030028 18 56 3.2 9.7 0.00 0.00 0.00 65 1027.9
20260510024527 18 1 1.6 14.5 0.00 0.00 0.00 65 1027.9
20260510023019 18 324 1.6 8.0 0.00 0.00 0.00 64 1028.0
20260510021518 18 41 3.2 9.7 0.00 0.00 0.00 61 1028.2
20260510020012 18 224 1.6 12.9 0.00 0.00 0.00 67 1028.4
20260510014509 17 162 3.2 14.5 0.00 0.00 0.00 67 1028.3
20260510013007 18 136 3.2 8.0 0.00 0.00 0.00 66 1028.5
20260510011555 17 135 1.6 6.4 0.00 0.00 0.00 68 1028.6
20260510010040 17 303 1.6 11.3 0.00 0.00 0.00 70 1028.9
20260510004525 17 11 3.2 9.7 0.00 0.00 0.00 71 1028.8
20260510003011 16 58 0.0 4.8 0.00 0.00 0.00 73 1028.9
20260510001600 16 63 0.0 3.2 0.00 0.00 0.00 76 1028.8
20260509234546 12 316 0.0 8.0 0.00 0.00 0.00 95 1028.7
20260509233016 11 25 1.6 6.4 0.00 0.00 0.00 97 1028.6
20260509231503 10 328 0.0 3.2 0.00 0.00 0.00 97 1028.5
20260509230100 10 335 0.0 3.2 0.00 0.00 0.00 97 1028.6
20260509224544 10 328 0.0 3.2 0.00 0.00 0.00 97 1028.4
20260509223030 9 337 0.0 3.2 0.00 0.00 0.00 97 1028.3
20260509221516 8 329 0.0 1.6 0.00 0.00 0.00 97 1028.3
20260509220002 8 299 0.0 1.6 0.00 0.00 0.00 97 1028.2
20260509214543 8 259 0.0 1.6 0.00 0.00 0.00 97 1028.2
20260509213035 7 259 0.0 0.0 0.00 0.00 0.00 97 1028.1
20260509211519 7 259 0.0 0.0 0.00 0.00 0.00 97 1028.0
20260509210013 6 259 0.0 0.0 0.00 0.00 0.00 97 1027.9
20260509204523 6 259 0.0 0.0 0.00 0.00 0.00 96 1027.6
20260509203014 7 259 0.0 0.0 0.00 0.00 0.00 97 1027.4
20260509201508 7 259 0.0 0.0 0.00 0.00 0.00 96 1027.2
20260509200002 7 259 0.0 0.0 0.00 0.00 0.00 97 1026.9
20260509194600 7 259 0.0 0.0 0.00 0.00 0.00 97 1026.7
20260509193005 7 259 0.0 0.0 0.00 0.00 0.00 97 1026.5
20260509191603 7 259 0.0 0.0 0.00 0.00 0.00 97 1026.3
20260509190057 6 259 0.0 0.0 0.00 0.00 0.00 97 1026.2
20260509184602 7 259 0.0 0.0 0.00 0.00 0.00 97 1026.0
20260509183052 6 259 0.0 0.0 0.00 0.00 0.00 97 1026.1
20260509181612 6 259 0.0 0.0 0.00 0.00 0.00 97 1025.8
20260509180044 6 259 0.0 0.0 0.00 0.00 0.00 96 1025.7
20260509174538 7 259 0.0 0.0 0.00 0.00 0.00 97 1025.7
20260509173028 7 259 0.0 0.0 0.00 0.00 0.00 96 1025.7
20260509171535 7 259 0.0 0.0 0.00 0.00 0.00 96 1025.8
20260509170029 7 259 0.0 0.0 0.00 0.00 0.00 96 1025.9
20260509164516 7 259 0.0 0.0 0.00 0.00 0.00 97 1026.0
20260509163023 7 259 0.0 0.0 0.00 0.00 0.00 96 1026.0
20260509161522 7 259 0.0 0.0 0.00 0.00 0.00 96 1025.9
20260509160014 7 259 0.0 0.0 0.00 0.00 0.00 96 1025.8
20260509154512 7 259 0.0 0.0 0.00 0.00 0.00 96 1025.8
20260509153004 7 259 0.0 0.0 0.00 0.00 0.00 96 1026.0
20260509151501 7 259 0.0 0.0 0.00 0.00 0.00 96 1025.9
20260509150011 7 259 0.0 0.0 0.00 0.00 0.00 96 1026.0
20260509144523 7 259 0.0 0.0 0.00 0.00 0.00 95 1025.9
20260509143020 7 259 0.0 0.0 0.00 0.00 0.00 96 1026.0
20260509141516 7 259 0.0 0.0 0.00 0.00 0.00 95 1026.0
20260509140107 7 259 0.0 0.0 0.00 0.00 0.00 95 1026.0
20260509134503 7 259 0.0 0.0 0.00 0.00 0.00 96 1026.0
20260509133103 7 259 0.0 0.0 0.00 0.00 0.00 95 1026.1
20260509131512 7 259 0.0 0.0 0.00 0.00 0.00 95 1026.2
20260509130003 7 259 0.0 0.0 0.00 0.00 0.00 93 1026.2
20260509124602 7 259 0.0 0.0 0.00 0.00 0.00 92 1026.1
20260509123131 8 259 0.0 0.0 0.00 0.00 0.00 92 1026.2
20260509121612 8 259 0.0 0.0 0.00 0.00 0.00 92 1026.4
20260509120112 7 259 0.0 0.0 0.00 0.00 0.00 89 1026.5
20260509114552 8 259 0.0 0.0 0.00 0.00 0.00 89 1026.2
20260509113048 8 259 0.0 0.0 0.00 0.00 0.00 87 1026.2
20260509111557 9 259 0.0 0.0 0.00 0.00 0.00 88 1026.3
20260509110035 9 259 0.0 0.0 0.00 0.00 0.00 85 1026.2
20260509104543 10 259 0.0 1.6 0.00 0.00 0.00 84 1026.1
20260509103045 11 259 0.0 1.6 0.00 0.00 0.00 85 1026.0
20260509101533 11 259 0.0 1.6 0.00 0.00 0.00 84 1025.9
20260509100015 11 235 0.0 4.8 0.00 0.00 0.00 83 1025.9
20260509094508 11 262 0.0 3.2 0.00 0.00 0.00 82 1025.8
20260509093054 11 283 0.0 3.2 0.00 0.00 0.00 81 1025.7
20260509091541 11 232 0.0 1.6 0.00 0.00 0.00 80 1025.4
20260509090024 11 228 0.0 3.2 0.00 0.00 0.00 80 1025.3
20260509084507 10 209 0.0 4.8 0.00 0.00 0.00 83 1024.9
20260509083013 9 338 0.0 0.0 0.00 0.00 0.00 80 1024.7
20260509081515 10 338 0.0 0.0 0.00 0.00 0.00 79 1024.5
20260509080016 10 338 0.0 0.0 0.00 0.00 0.00 74 1024.2
20260509074508 12 338 0.0 1.6 0.00 0.00 0.00 72 1024.2
20260509073004 12 338 0.0 0.0 0.00 0.00 0.00 72 1023.9
20260509071603 13 360 0.0 0.0 0.00 0.00 0.00 71 1023.8
20260509070101 13 359 0.0 0.0 0.00 0.00 0.00 71 1023.6
20260509064611 15 195 0.0 0.0 0.00 0.00 0.00 66 1023.5
20260509063047 17 193 0.0 0.0 0.00 0.00 0.00 59 1023.3
20260509061531 18 144 0.0 6.4 0.00 0.00 0.00 57 1023.4
20260509060018 17 143 0.0 8.0 0.00 0.00 0.00 58 1023.1
20260509054604 18 248 1.6 8.0 0.00 0.00 0.00 54 1023.0
20260509053049 18 207 0.0 6.4 0.00 0.00 0.00 55 1023.0
20260509051533 18 11 0.0 8.0 0.00 0.00 0.00 56 1023.0
20260509050020 17 224 3.2 8.0 0.00 0.00 0.00 57 1023.0